Wind_Speed
23 23 25 26 26 25 26 26 27 27 27 25 23 23 24 23 23 23 23 23 24 24 24 24 25 24 23 24 24 24 24 24 25 25 25 26 26 26 25 24 23 23 22 21
24 23 25 25 25 26 26 27 27 27 26 25 24 23 23 23 23 24 25 25 25 25 25 25 25 25 24 23 24 25 25 24 25 25 25 26 26 26 25 25 25 24 22 22
24 23 24 25 25 26 27 28 27 27 26 25 24 23 23 23 24 24 25 26 26 26 25 24 24 24 24 23 23 24 24 23 24 24 25 25 25 26 26 26 25 24 23 23
24 24 25 24 24 25 26 26 26 27 26 26 25 24 24 24 25 25 25 25 25 24 23 23 23 23 23 24 23 23 23 23 23 24 24 25 25 25 25 25 25 24 24 24
24 25 24 24 24 23 25 25 25 25 25 25 25 26 25 25 25 25 25 25 24 24 23 22 22 22 23 23 23 23 23 23 23 23 23 23 24 24 24 24 24 24 24 24
24 25 25 24 24 23 24 25 24 25 25 26 26 26 25 25 25 26 25 25 24 24 23 22 22 22 23 23 24 24 23 23 23 23 23 23 23 24 23 23 24 23 23 24
24 25 25 25 25 24 24 24 24 26 26 26 26 25 25 25 25 25 24 24 24 23 22 22 22 23 23 23 24 24 23 23 23 23 23 23 23 24 24 24 24 24 24 24
23 25 25 25 25 25 25 25 25 26 26 27 26 26 26 25 24 24 24 24 23 23 22 22 22 22 23 23 23 23 23 22 23 23 23 23 23 23 24 24 24 24 24 24
24 24 24 24 25 26 26 26 25 25 26 26 26 26 25 25 24 24 24 24 23 23 23 23 23 23 23 23 23 23 22 22 23 23 23 23 23 23 23 24 24 24 24 23
24 24 24 24 24 26 27 26 25 25 25 25 25 24 25 25 24 24 23 24 24 24 24 23 23 23 23 23 23 22 22 22 22 22 23 23 23 23 23 23 23 23 22 22
25 24 24 24 24 24 25 25 25 25 25 25 25 24 24 24 24 23 23 24 24 24 24 24 23 23 23 23 23 23 23 23 23 23 23 22 22 23 23 24 22 21 21 22
24 24 25 24 23 23 23 24 24 24 25 25 25 25 24 24 24 24 23 23 23 24 24 24 24 23 24 24 24 24 23 23 23 23 23 23 22 22 22 22 21 22 22 23
23 23 24 24 24 24 23 23 24 24 24 25 25 25 25 25 24 24 24 23 24 24 24 23 23 23 24 23 23 23 23 23 23 23 23 23 22 21 21 22 22 22 22 23
22 23 23 24 24 24 23 23 24 24 24 24 24 24 25 25 24 24 24 25 24 24 23 23 23 22 22 22 22 22 22 22 22 22 22 22 22 21 21 22 22 23 23 23
20 22 22 23 23 23 23 22 22 22 23 24 24 25 25 25 25 24 24 24 23 23 22 22 22 22 22 22 21 21 22 22 22 22 22 21 21 21 22 22 22 23 22 22
21 21 22 22 22 23 23 23 23 23 24 24 24 25 25 24 24 23 23 23 23 22 22 22 22 22 23 22 22 22 22 22 21 22 21 21 22 21 21 21 21 21 21 21
20 20 21 21 22 23 23 24 24 24 24 23 24 24 23 23 22 22 22 22 22 22 22 22 22 23 23 23 23 22 21 21 21 21 20 20 21 21 21 21 20 20 21 21
19 19 19 20 21 23 23 24 23 22 22 22 23 23 23 22 22 22 22 22 22 23 23 23 23 23 23 23 23 22 22 21 21 21 21 20 20 20 21 21 21 20 20 20
17 17 18 19 20 22 22 22 22 21 21 21 22 22 22 22 22 21 22 22 22 23 23 23 23 23 23 23 22 22 22 21 21 21 21 21 21 21 21 21 21 20 20 20
17 18 18 19 19 19 19 20 21 20 20 20 20 21 21 21 22 21 21 21 21 22 22 22 22 22 22 22 22 22 21 20 20 20 19 20 21 21 20 20 21 21 21 21
18 18 18 18 18 19 19 20 20 20 20 20 20 20 21 21 21 22 22 22 21 22 21 21 21 21 20 20 20 20 20 19 19 19 19 20 21 21 21 21 21 21 22 22
17 17 17 17 18 19 18 19 19 19 19 19 20 20 21 21 21 21 22 21 21 21 21 21 21 21 20 20 20 20 20 20 20 20 20 20 20 21 21 21 21 22 22 22
18 18 18 18 18 18 18 19 19 19 18 18 19 20 20 20 20 21 21 20 20 20 20 20 20 20 20 20 20 20 21 21 20 21 21 20 20 20 20 21 21 21 22 22
18 18 19 19 19 19 19 19 19 19 19 19 19 19 19 20 20 20 20 20 20 20 20 20 20 21 21 22 21 21 21 21 21 21 21 21 21 21 21 21 21 21 22 22
18 18 19 19 19 18 19 19 19 20 20 19 18 18 19 19 19 19 19 20 20 20 20 20 20 21 21 21 21 21 21 21 21 21 22 22 22 22 22 22 22 22 22 22
18 18 18 19 19 18 18 18 18 18 18 17 17 17 18 19 19 19 19 19 20 20 20 20 20 20 20 20 21 22 22 22 22 22 22 22 22 22 22 22 22 22 22 22
17 17 17 17 18 18 18 17 17 17 17 17 16 17 17 17 17 17 18 18 19 20 20 19 19 19 19 19 20 20 20 21 21 21 21 21 21 21 21 22 22 22 21 21
Wind_Direction
249 246 245 247 248 248 249 251 251 251 252 255 257 259 261 265 265 266 268 270 273 275 274 273 273 273 273 272 272 273 273 272 272 274 272 271 271 268 268 268 268 268 269 272
248 248 246 247 248 250 252 252 252 253 252 253 257 261 265 268 269 270 271 273 276 277 277 278 279 277 275 272 272 273 272 272 272 272 272 272 271 268 266 267 268 268 269 271
246 245 247 247 248 249 250 250 251 252 253 253 256 261 265 268 269 271 273 276 277 276 276 278 280 279 276 272 272 273 273 272 272 272 272 273 272 270 269 268 270 272 269 272
249 247 248 249 250 249 250 251 251 253 253 253 256 261 266 269 271 271 271 275 277 276 275 275 276 276 275 273 273 273 274 272 271 272 273 274 272 270 270 268 270 270 270 272
251 249 251 249 250 251 253 253 253 253 253 255 259 262 265 269 270 269 270 274 276 278 276 274 275 276 277 276 274 274 274 273 272 272 272 272 271 271 271 271 269 270 269 271
254 251 250 250 250 252 254 253 252 253 254 256 258 261 265 268 272 273 273 272 274 277 279 278 277 277 277 276 275 276 275 273 271 270 271 271 270 270 272 272 271 270 271 273
255 254 251 249 251 252 253 254 254 254 254 256 259 264 267 268 271 274 273 274 276 277 278 278 276 275 275 275 276 276 274 272 271 270 271 271 271 271 272 272 271 272 271 273
256 256 253 250 251 251 253 254 253 254 256 258 261 264 265 268 270 274 274 274 276 276 276 276 274 274 274 275 277 275 272 270 270 271 270 271 272 270 271 273 272 273 273 273
258 258 256 253 252 253 255 257 255 256 258 258 262 264 266 267 269 273 272 272 272 272 274 274 274 274 275 276 276 276 273 270 268 269 270 271 272 272 273 273 273 274 274 273
260 259 257 255 255 255 255 255 254 257 261 261 262 263 265 270 271 272 271 271 271 273 275 274 274 274 273 274 274 274 274 272 271 269 270 271 272 273 273 273 273 274 272 271
264 262 259 256 256 256 254 254 256 257 262 262 261 262 267 269 270 271 271 269 269 273 275 276 276 274 274 273 275 276 273 272 270 269 270 271 272 274 273 274 273 271 271 273
264 264 261 259 257 256 257 258 260 260 262 265 265 266 269 270 270 270 271 271 272 273 274 275 274 273 273 274 275 275 273 271 271 271 271 270 271 272 273 274 274 273 274 274
264 263 260 257 255 256 258 259 261 265 265 264 266 267 268 271 272 272 272 273 272 272 273 274 273 272 271 272 272 274 272 271 270 270 270 270 271 272 272 273 274 273 273 274
263 260 257 255 254 255 258 260 261 264 265 265 265 268 271 270 271 270 272 273 273 272 272 273 273 273 272 273 272 272 271 270 270 270 269 269 269 270 272 273 274 273 273 272
262 259 257 257 257 257 258 259 261 262 264 265 266 268 270 270 269 269 270 272 273 272 271 271 271 272 272 273 273 272 272 272 270 270 268 267 268 271 273 274 276 276 274 273
260 260 260 260 260 260 258 259 262 264 265 263 266 268 268 269 269 268 268 270 271 272 270 270 270 271 271 271 272 273 272 271 270 268 267 268 269 271 274 277 277 276 275 276
260 260 260 260 260 261 261 262 263 264 264 264 267 268 269 268 268 268 267 268 269 270 271 271 270 271 272 271 272 272 272 271 268 265 267 269 273 275 277 279 280 279 277 276
262 260 258 258 259 261 262 264 265 264 263 265 267 267 268 268 268 267 267 269 270 271 273 273 272 272 272 271 271 272 272 271 269 268 268 270 273 276 278 279 279 277 276 277
265 262 260 259 260 260 262 265 266 266 265 265 267 268 268 268 269 269 269 272 273 274 275 274 273 272 270 269 268 270 271 270 269 270 270 271 273 274 276 278 278 277 278 280
265 265 264 266 266 265 265 267 267 266 265 264 264 264 266 267 268 269 270 271 272 273 274 275 275 273 270 268 266 267 269 270 270 269 270 271 273 275 276 277 277 276 277 281
268 269 271 271 267 266 266 266 265 261 262 262 262 263 263 265 268 268 268 270 272 272 271 272 273 271 269 267 266 266 268 269 271 272 273 274 275 276 276 278 278 277 276 278
272 272 270 268 267 267 268 267 265 263 262 262 262 261 262 265 268 268 267 269 271 269 268 269 270 269 267 266 266 267 267 268 270 273 276 276 277 278 279 280 278 278 279 279
272 272 269 268 268 267 267 266 266 267 267 266 265 264 265 266 268 269 269 270 271 270 269 269 270 267 265 266 266 267 268 268 269 272 275 276 278 280 281 281 280 280 280 280
269 270 269 268 267 266 266 266 266 267 267 268 268 266 267 268 269 269 269 269 271 271 271 271 270 268 267 266 266 268 269 270 271 273 275 276 277 279 282 283 283 282 281 280
267 267 268 267 266 265 265 266 266 265 264 267 267 266 266 269 269 268 266 267 270 271 271 270 268 267 266 264 265 267 268 270 273 274 274 275 276 278 281 283 282 281 282 282
267 267 268 268 267 267 265 264 263 261 261 263 265 265 266 268 268 266 265 267 269 269 271 272 271 268 267 266 267 268 269 271 273 274 275 275 276 277 279 280 281 282 282 283
267 268 268 266 265 264 263 261 259 258 258 261 263 265 266 267 268 268 269 270 269 268 270 272 273 272 270 269 269 270 271 269 269 271 273 275 276 277 279 280 282 283 284 284
Height
5786 5788 5788 5790 5791 5793 5793 5794 5795 5796 5797 5798 5798 5798 5799 5799 5800 5801 5801 5801 5801 5800 5801 5800 5799 5798 5798 5798 5798 5797 5797 5796 5796 5795 5794 5793 5793 5793 5793 5793 5793 5793 5793 5793
5780 5781 5782 5783 5785 5786 5787 5787 5788 5789 5790 5791 5792 5792 5792 5793 5793 5794 5794 5794 5793 5793 5792 5792 5791 5791 5791 5790 5790 5790 5789 5789 5788 5787 5787 5786 5786 5785 5785 5786 5786 5786 5786 5786
5773 5775 5775 5777 5779 5779 5780 5780 5782 5782 5784 5785 5786 5786 5786 5786 5786 5786 5786 5786 5785 5785 5784 5784 5784 5783 5783 5783 5782 5782 5781 5781 5780 5780 5779 5779 5778 5778 5778 5778 5778 5777 5778 5779
5766 5768 5769 5773 5772 5772 5773 5774 5775 5776 5777 5779 5780 5780 5780 5780 5779 5778 5778 5778 5777 5777 5777 5777 5776 5776 5775 5775 5774 5774 5773 5773 5772 5772 5771 5771 5771 5771 5771 5771 5771 5770 5771 5772
5759 5760 5762 5764 5764 5765 5766 5767 5768 5769 5770 5772 5772 5773 5773 5772 5771 5771 5771 5770 5770 5770 5769 5769 5769 5768 5768 5767 5767 5766 5766 5765 5765 5764 5764 5764 5763 5763 5763 5764 5764 5764 5764 5764
5751 5752 5754 5758 5758 5758 5760 5760 5762 5762 5764 5764 5765 5765 5766 5765 5764 5764 5764 5763 5763 5763 5763 5762 5762 5761 5761 5760 5759 5759 5759 5758 5758 5757 5757 5757 5756 5756 5756 5756 5756 5756 5757 5757
5744 5745 5747 5749 5750 5752 5753 5755 5755 5755 5756 5757 5758 5759 5759 5758 5758 5757 5757 5757 5757 5757 5757 5756 5755 5754 5754 5753 5753 5752 5751 5751 5751 5750 5750 5750 5749 5749 5749 5749 5749 5749 5749 5749
5737 5738 5742 5741 5743 5744 5745 5746 5747 5748 5749 5750 5751 5751 5751 5751 5751 5751 5751 5750 5750 5750 5750 5749 5748 5748 5747 5747 5746 5745 5744 5744 5744 5744 5743 5743 5742 5742 5742 5742 5742 5742 5742 5742
5731 5733 5733 5734 5735 5737 5737 5739 5740 5741 5742 5743 5743 5744 5744 5744 5744 5744 5744 5744 5743 5743 5743 5742 5742 5741 5740 5740 5739 5738 5737 5737 5737 5737 5737 5736 5736 5735 5735 5735 5735 5735 5734 5734
5723 5724 5725 5727 5728 5729 5730 5731 5732 5734 5734 5735 5735 5736 5737 5737 5737 5737 5737 5737 5737 5736 5736 5735 5734 5734 5733 5733 5732 5731 5731 5730 5730 5730 5730 5729 5729 5729 5729 5728 5728 5727 5727 5727
5716 5717 5718 5720 5721 5722 5724 5725 5725 5726 5727 5727 5728 5729 5729 5730 5729 5729 5729 5729 5729 5729 5728 5728 5727 5727 5727 5726 5725 5724 5724 5724 5723 5723 5723 5722 5722 5722 5721 5721 5720 5720 5720 5720
5709 5710 5711 5713 5714 5716 5717 5717 5718 5718 5719 5720 5720 5721 5722 5722 5722 5722 5722 5722 5722 5722 5721 5721 5720 5720 5719 5719 5718 5717 5717 5716 5716 5715 5715 5715 5715 5715 5714 5714 5713 5713 5713 5712
5701 5702 5703 5705 5707 5708 5709 5710 5710 5711 5712 5713 5713 5714 5714 5714 5714 5714 5715 5715 5714 5714 5714 5713 5713 5712 5712 5711 5711 5710 5710 5709 5709 5708 5708 5708 5708 5707 5707 5707 5706 5706 5705 5705
5694 5695 5696 5698 5699 5701 5702 5703 5704 5704 5705 5705 5706 5707 5707 5707 5707 5707 5707 5707 5706 5706 5706 5706 5705 5705 5705 5704 5703 5703 5702 5702 5701 5701 5701 5701 5701 5701 5700 5700 5700 5699 5698 5698
5688 5689 5690 5691 5692 5693 5694 5696 5696 5697 5698 5699 5699 5699 5700 5700 5700 5700 5700 5699 5699 5699 5699 5699 5698 5698 5697 5697 5697 5696 5696 5695 5694 5694 5694 5694 5694 5694 5693 5693 5692 5692 5691 5690
5683 5683 5684 5684 5685 5687 5688 5689 5690 5690 5691 5691 5692 5692 5692 5692 5692 5692 5692 5692 5692 5692 5692 5691 5691 5691 5690 5690 5690 5689 5689 5688 5688 5688 5688 5687 5687 5687 5687 5686 5685 5684 5684 5683
5677 5677 5678 5678 5679 5680 5681 5682 5683 5683 5684 5684 5685 5685 5685 5685 5685 5685 5685 5685 5685 5685 5685 5684 5684 5684 5683 5683 5683 5683 5682 5681 5681 5681 5681 5681 5681 5680 5680 5679 5678 5677 5676 5676
5670 5671 5671 5672 5673 5673 5674 5674 5675 5676 5676 5676 5677 5677 5677 5677 5678 5678 5678 5678 5678 5678 5678 5677 5677 5677 5676 5676 5676 5676 5676 5675 5675 5674 5674 5674 5674 5674 5673 5673 5672 5671 5670 5669
5664 5664 5665 5665 5666 5667 5667 5667 5668 5668 5669 5669 5669 5669 5670 5670 5670 5670 5670 5671 5671 5671 5670 5670 5670 5669 5669 5669 5669 5669 5669 5669 5668 5668 5667 5667 5667 5667 5667 5666 5665 5664 5663 5662
5657 5658 5658 5659 5659 5660 5660 5660 5661 5661 5661 5662 5662 5663 5663 5663 5663 5663 5663 5664 5663 5663 5663 5663 5662 5662 5662 5661 5662 5662 5662 5662 5662 5661 5661 5661 5660 5660 5659 5659 5659 5658 5657 5656
5652 5652 5652 5652 5653 5653 5653 5654 5654 5655 5655 5655 5656 5656 5656 5656 5656 5656 5656 5657 5656 5656 5656 5656 5655 5655 5654 5654 5654 5655 5655 5655 5655 5655 5654 5654 5653 5653 5652 5652 5651 5651 5650 5649
5645 5645 5646 5646 5646 5647 5647 5647 5647 5648 5648 5648 5649 5649 5649 5649 5649 5649 5649 5649 5649 5649 5649 5649 5648 5648 5648 5648 5648 5648 5648 5648 5648 5648 5648 5647 5647 5646 5645 5645 5644 5643 5642 5641
5639 5639 5639 5639 5640 5640 5641 5641 5641 5641 5641 5641 5642 5642 5642 5642 5642 5642 5642 5642 5642 5642 5641 5641 5641 5641 5641 5641 5641 5641 5641 5641 5641 5641 5641 5640 5640 5639 5638 5637 5636 5635 5634 5633
5632 5633 5633 5633 5633 5633 5634 5634 5634 5634 5635 5635 5635 5635 5635 5635 5635 5635 5635 5635 5634 5634 5635 5634 5634 5634 5634 5634 5634 5634 5634 5634 5633 5633 5633 5633 5632 5632 5631 5630 5629 5628 5627 5626
5625 5626 5626 5626 5626 5627 5627 5627 5628 5628 5628 5628 5628 5628 5628 5628 5628 5628 5628 5628 5628 5628 5627 5627 5627 5627 5627 5627 5627 5627 5626 5626 5626 5625 5625 5625 5624 5624 5623 5622 5622 5621 5620 5619
5618 5619 5619 5619 5619 5619 5620 5620 5620 5621 5621 5621 5622 5622 5621 5621 5621 5621 5621 5621 5621 5621 5621 5620 5620 5619 5619 5619 5619 5619 5618 5618 5618 5617 5617 5617 5616 5616 5615 5615 5614 5613 5612 5611
5611 5612 5612 5612 5612 5612 5613 5613 5614 5614 5615 5615 5615 5615 5615 5615 5615 5615 5615 5615 5614 5614 5614 5613 5613 5612 5612 5612 5611 5611 5610 5610 5610 5610 5610 5609 5609 5608 5608 5608 5607 5606 5605 5604